sat.trackr.live / text

‹ back to catalog

ORBCOMM FM110

NORAD 41182 · 2015-081D

PAYLOAD ACTIVE UNKNOWN

§ Identity

Operator
Country
ORB
Launch date
2015-12-22
Launch site
AFETR
Launch vehicle
Mass (kg)
RCS (m²)
0.57

Purposes: comms

External: N2YO · Heavens-Above · Gunter

§ Orbital elements

Epoch: 2026-09-20T02:09:23.594688Z

Period
98.70 min
Inclination
47.0012°
Eccentricity
0.0002383
Mean motion
14.58992874 rev/d
Perigee alt
694.7 km
Apogee alt
698.1 km
Semi-major
7,074.6 km
B*
9.2468e-5
RAAN
272.6714°
Arg perigee
177.7479°
Mean anomaly
182.3418°
Rev number
57,148

§ Raw data

ORBCOMM FM1101 41182U 15081D   26263.08985642  .00000267  00000+0  92468-4 0  99992 41182  47.0012 272.6714 0002383 177.7479 182.3418 14.58992874571488

JSON: /api/v1/satellites/41182 · /tle

For live sub-satellite position, see the globe view (requires WebGL).

§ Visibility from observer

Set your observer location to see the next 7 days of passes ≥ 10°. The values pass through the URL so the page stays shareable.

No JS? Fill the form by hand. The geolocation button needs JavaScript.

§ Radio — SatNOGS DB

ModeDescriptionDownlinkUplink
FM Telemetry 137.288 MHz

1 transmitter · refreshed weekly from db.satnogs.org